[ hide orbit diagram ]
For accurate long-term ephemerides, please instead use our Horizons system.This orbit viewer was implemented using two-body methods, and hence should not be used for determining accurate long-term trajectories (over several years or decades) or planetary encounter circumstances.
Orbital Elements at Epoch 2459000.5 (2020-May-31.0) TDB
Reference: JPL 15 (heliocentric ecliptic J2000)
Element | Value | Uncertainty (1-sigma) | Units |
e | .152018006082014 | 5.7128e-08 | |
a | 2.201526182104498 | 1.8473e-08 | au |
q | 1.866854561563624 | 1.1975e-07 | au |
i | 6.391325972841744 | 5.8222e-06 | deg |
node | 172.7308598988535 | 6.7083e-05 | deg |
peri | 182.2998586914273 | 7.1499e-05 | deg |
M | 351.901042283155 | 2.5001e-05 | deg |
tp | 2459027.341750788410 (2020-Jun-26.84175079) | 8.2834e-05 | TDB |
period | 1193.120228758489 3.27 | 1.5018e-05 4.112e-08 | d yr |
n | .3017298603465979 | 3.7978e-09 | deg/d |
Q | 2.536197802645373 | 2.1282e-08 | au |
|
| | Orbit Determination Parameters
Additional Information
|
[ show covariance matrix ]
Physical Parameter Table
Parameter |
Symbol |
Value |
Units |
Sigma |
Reference |
Notes |
absolute magnitude |
H |
18.0 |
|
n/a |
MPO477207 |
|
|
469073 (2015 BO70) Discovered 2010-Oct-07 by LINEAR at Socorro |
Reference: | Last Updated: 2016-06-21 |
|
|